XTAR-EUR

Last updated on Sat Jun 21 2025 00:02:42 GMT+0000 (Coordinated Universal Time)

1 28542U 05005A 25171.39734687 .00000160 00000+0 00000+0 0 9999 2 28542 3.4002 81.2371 0004754 359.6195 0.0368 1.00273754 74560
UTC large
Height (km)
Speed (km/s)
/
Latitude / Longitude
Inclination (degrees)
Orbital Period (minutes)
Azimuth
Elevation
Range (km)
Doppler Factor

Next 0 passes for location: London (51.5072 / 0.1276)

Sorry there are no passes over London.